COSMOS 2251 DEB

Satellite information

Favourite Embed

Satellite Type and Status

DEBRISIN ORBIT

Key statistics

Satellite COSMOS 2251 DEB at a glance.

Uptime

11648

Days in orbit

Revolutions

≈ 14.4

Per day

Orbit

LEO

Low Earth Orbit

Inclination

73.9

Latest

Satellite identification and parameters

Extended collection of information and parameters for COSMOS 2251 DEB.

Object identification

Identified? True

Debris? True

Object name: COSMOS 2251 DEB

International designator: 1993-036ALD

Object number (NORAD): 35459

Object ID (CCSDS): 35459

Country: COMMONWEALTH OF INDEPENDENT STATES (CIS)

Current information (Y/N): Y

RCS size: SMALL

Orbital parameters

Period: 100.204 minutes

Inclination: 73.8721 deg

SMA: 7146.354 km

Apoapsis: 780.611 km

Periapsis: 755.827 km

RAAN: 238.1762 deg

Eccentricy: 0.001734

Argument of periapsis: 230.5628 deg

Mean anomaly: 129.399 deg

Mean motion: 14.37063565 rev/day

Mean motion (dot): 0.00001226 rev/day2

B* drag term: 0.00042171 1/REarth

Two-line elements (TLE)

Creation date: May 6, 2025, 3:54 a.m.

Reference frame: TEME

Reference center: EARTH

Epoch: May 5, 2025, 1:56 p.m. UTC

TLE line 0: 0 COSMOS 2251 DEB

TLE line 1: 1 35459U 93036ALD 25125.58115795 .00001226 00000-0 42171-3 0 9992

TLE line 2: 2 35459 73.8721 238.1762 0017340 230.5628 129.3990 14.37063565551842

Live tracking on map

Real-time ground track for satellite COSMOS 2251 DEB.

In-orbit conjunctions

A list of the most updated potential collisions computed for object COSMOS 2251 DEB.

Target Orbit TCA Probability of collision Miss distance Type
COSMOS 540 LEO 2025-01-08 15:50:57 0.0002670687 113.0 (m) PAYLOAD
ARIANE 40 R/B SSO 2025-01-06 19:52:03 0.0001208376 923.0 (m) ROCKET BODY
FENGYUN 1C DEB SSO 2024-11-14 07:46:49 0.0001779242 277.0 (m) DEBRIS
NOAA 16 DEB SSO 2024-09-26 20:58:10 0.0002809169 996.0 (m) DEBRIS
CZ-6A DEB SSO 2024-07-13 13:54:14 0.0001344869 390.0 (m) DEBRIS

Associated space launch

Military communications satellite. Destroyed in a collision with Iridium 33.

COSMOS 2251 DEB was lifted into orbit during the mission ‘Kosmos-3M | Strela-2M 51’, on board a Kosmos-3M space rocket.

The launch took place on June 16, 1993, 4:17 a.m. from 132/1 (132L).

For more information about the launch, click the button.

Launch to space Kosmos-3M | Strela-2M 51
Kosmos-3M | Strela-2M 51

Agency: N/A

Status: Launch Successful

Launch date: June 16, 1993, 4:17 a.m. UTC

Rocket: Kosmos-3M

Launch pad: 132/1 (132L)

Location: Plesetsk Cosmodrome, Russian Federation

...

Latest news about this satellite

There are no fresh news available about this satellite. Check back as we update our databases every day.


Newsletter sign-up

Weekly statistics, charts and insights to help you stay on top of the space industry.